TimeCST,TemperatureF,Dew PointF,Humidity,Sea Level PressureIn,VisibilityMPH,Wind Direction,Wind SpeedMPH,Gust SpeedMPH,PrecipitationIn,Events,Conditions,WindDirDegrees,DateUTC
12:00 AM,67,62,79,29.83,9,NE,3.5,,,,Scattered Clouds,50,2013-02-14 06:00:00
12:00 AM,66.2,62.6,88,30.03,6.2,NE,3.5,-,N/A,,Mostly Cloudy,50,2013-02-14 06:00:00
1:00 AM,66.2,60.8,83,30.00,6.2,NE,5.8,-,N/A,,Scattered Clouds,40,2013-02-14 07:00:00
2:00 AM,64.4,60.8,88,30.00,-9999.0,NNE,3.5,-,N/A,,Clear,20,2013-02-14 08:00:00
3:00 AM,65,60,79,,12,ENE,3.5,,,,Scattered Clouds,70,2013-02-14 09:00:00
3:00 AM,66.2,60.8,83,29.99,6.2,ENE,3.5,-,N/A,,Scattered Clouds,70,2013-02-14 09:00:00
4:00 AM,64.4,59.0,83,29.99,6.2,East,4.6,-,N/A,,Partly Cloudy,80,2013-02-14 10:00:00
5:00 AM,62.6,59.0,88,30.00,-9999.0,NE,3.5,-,N/A,,Clear,50,2013-02-14 11:00:00
6:00 AM,63,59,83,29.87,9,ENE,3.5,,,,Mostly Cloudy,70,2013-02-14 12:00:00
6:00 AM,62.6,59.0,88,30.02,-9999.0,ENE,3.5,-,N/A,,Clear,70,2013-02-14 12:00:00
7:00 AM,68.0,60.8,78,30.04,6.2,ENE,4.6,-,N/A,,Mostly Cloudy,60,2013-02-14 13:00:00
8:00 AM,69.8,60.8,73,30.05,6.2,East,4.6,-,N/A,,Mostly Cloudy,80,2013-02-14 14:00:00
9:00 AM,73,62,60,29.94,9,ENE,5.8,,,,Scattered Clouds,60,2013-02-14 15:00:00
9:00 AM,73.4,62.6,69,30.06,6.2,ENE,5.8,-,N/A,,Mostly Cloudy,60,2013-02-14 15:00:00
10:00 AM,78.8,60.8,54,30.06,6.2,East,9.2,-,N/A,,Scattered Clouds,100,2013-02-14 16:00:00
11:00 AM,78.8,59.0,51,30.05,6.2,East,8.1,-,N/A,,Scattered Clouds,100,2013-02-14 17:00:00
12:00 PM,83,57,31,,12,ESE,6.9,,,,,110,2013-02-14 18:00:00
12:00 PM,82.4,57.2,42,30.02,6.2,ESE,9.2,-,N/A,,Scattered Clouds,110,2013-02-14 18:00:00
1:00 PM,82.4,57.2,42,30.00,6.2,ESE,3.5,-,N/A,,Scattered Clouds,120,2013-02-14 19:00:00
1:40 PM,80.6,59.0,48,29.97,6.2,WSW,4.6,-,N/A,,Scattered Clouds,250,2013-02-14 19:40:00
2:00 PM,82.4,59.0,45,29.96,6.2,West,5.8,-,N/A,,Scattered Clouds,260,2013-02-14 20:00:00
3:00 PM,78.8,59.0,51,29.95,6.2,South,8.1,-,N/A,,Mostly Cloudy,180,2013-02-14 21:00:00
3:20 PM,73.4,62.6,69,29.96,-9999.0,North,-9999.0,-,N/A,Rain,Light Rain Showers,0,2013-02-14 21:20:00
4:00 PM,68.0,64.4,88,29.96,6.2,SE,5.8,-,N/A,Rain,Light Rain,140,2013-02-14 22:00:00
5:00 PM,68.0,64.4,88,29.95,6.2,ESE,5.8,-,N/A,Rain,Light Rain,110,2013-02-14 23:00:00
6:00 PM,69.8,62.6,78,29.98,6.2,ESE,4.6,-,N/A,,Mostly Cloudy,110,2013-02-15 00:00:00
7:00 PM,69.8,60.8,73,30.00,6.2,East,5.8,-,N/A,,Mostly Cloudy,90,2013-02-15 01:00:00
8:00 PM,69.8,60.8,73,30.03,6.2,East,5.8,-,N/A,,Mostly Cloudy,80,2013-02-15 02:00:00
9:00 PM,68,60,69,29.91,12,ENE,5.8,,,,Partly Cloudy,60,2013-02-15 03:00:00
9:00 PM,68.0,60.8,78,30.04,-9999.0,ENE,5.8,-,N/A,,Clear,60,2013-02-15 03:00:00
10:00 PM,68.0,59.0,73,30.05,-9999.0,East,10.4,-,N/A,,Clear,80,2013-02-15 04:00:00
11:00 PM,68.0,57.2,68,30.04,-9999.0,East,11.5,-,N/A,,Clear,80,2013-02-15 05:00:00